Time,TemperatureF,DewpointF,PressureIn,WindDirection,WindDirectionDegrees,WindSpeedMPH,WindSpeedGustMPH,Humidity,HourlyPrecipIn,Conditions,Clouds,dailyrainin,SoftwareType,DateUTC
2013-06-09 00:01:00,65.6,64.1,30.04,NW,304,0.0,0.0,95,0.00,,---,0.12,VWS V14.01,2013-06-09 04:01:00,
2013-06-09 00:06:00,65.5,64.0,30.04,NW,304,0.0,0.0,95,0.00,,---,0.00,VWS V14.01,2013-06-09 04:06:00,
2013-06-09 00:11:00,65.3,63.8,30.04,NW,304,0.0,0.0,95,0.00,,---,0.00,VWS V14.01,2013-06-09 04:11:00,
2013-06-09 00:16:00,65.3,63.8,30.04,NW,304,0.0,0.0,95,0.00,,---,0.00,VWS V14.01,2013-06-09 04:16:00,
2013-06-09 00:21:00,65.2,63.7,30.05,NW,304,0.0,0.0,95,0.00,,---,0.00,VWS V14.01,2013-06-09 04:21:00,
2013-06-09 00:26:00,65.1,63.6,30.04,NW,304,0.0,0.0,95,0.00,,---,0.00,VWS V14.01,2013-06-09 04:26:00,
2013-06-09 00:31:00,65.0,63.5,30.04,NW,304,0.0,0.0,95,0.00,,---,0.00,VWS V14.01,2013-06-09 04:31:00,
2013-06-09 00:36:00,65.0,63.8,30.04,NW,304,0.0,0.0,96,0.00,,---,0.00,VWS V14.01,2013-06-09 04:36:00,
2013-06-09 00:41:00,65.1,63.9,30.04,NW,304,0.0,0.0,96,0.00,,---,0.00,VWS V14.01,2013-06-09 04:41:00,
2013-06-09 00:46:00,65.0,63.8,30.04,NW,304,0.0,0.0,96,0.00,,---,0.00,VWS V14.01,2013-06-09 04:46:00,
2013-06-09 00:51:00,65.0,63.8,30.04,NW,304,0.0,0.0,96,0.00,,---,0.00,VWS V14.01,2013-06-09 04:51:00,
2013-06-09 00:56:00,64.9,63.7,30.04,NW,304,0.0,0.0,96,0.00,,---,0.00,VWS V14.01,2013-06-09 04:56:00,
2013-06-09 01:01:00,64.8,63.3,30.04,NW,304,0.0,0.0,95,0.00,,---,0.00,VWS V14.01,2013-06-09 05:01:00,
2013-06-09 01:06:00,64.9,63.7,30.04,NW,304,0.0,0.0,96,0.00,,---,0.00,VWS V14.01,2013-06-09 05:06:00,
2013-06-09 01:11:00,64.9,63.7,30.04,NW,304,0.0,0.0,96,0.00,,---,0.00,VWS V14.01,2013-06-09 05:11:00,
2013-06-09 01:16:00,64.9,63.7,30.04,NW,304,0.0,0.0,96,0.00,,---,0.00,VWS V14.01,2013-06-09 05:16:00,
2013-06-09 01:21:00,64.9,63.7,30.04,NW,304,0.0,0.0,96,0.00,,---,0.00,VWS V14.01,2013-06-09 05:21:00,
2013-06-09 01:26:00,64.8,63.6,30.04,NW,304,0.0,0.0,96,0.00,,---,0.00,VWS V14.01,2013-06-09 05:26:00,
2013-06-09 01:31:00,64.8,63.6,30.04,NW,304,0.0,0.0,96,0.00,,---,0.00,VWS V14.01,2013-06-09 05:31:00,
2013-06-09 01:36:00,64.7,63.5,30.04,NW,304,0.0,0.0,96,0.00,,---,0.00,VWS V14.01,2013-06-09 05:36:00,
2013-06-09 01:41:00,64.6,63.4,30.04,NW,304,0.0,0.0,96,0.00,,---,0.00,VWS V14.01,2013-06-09 05:41:00,
2013-06-09 01:46:00,64.6,63.4,30.04,NW,304,0.0,0.0,96,0.00,,---,0.00,VWS V14.01,2013-06-09 05:46:00,
2013-06-09 01:51:00,64.5,63.3,30.04,NW,304,0.0,0.0,96,0.00,,---,0.00,VWS V14.01,2013-06-09 05:51:00,
2013-06-09 01:56:00,64.4,63.2,30.04,NW,304,0.0,0.0,96,0.00,,---,0.00,VWS V14.01,2013-06-09 05:56:00,
2013-06-09 02:01:00,64.4,63.2,30.04,NW,304,0.0,0.0,96,0.00,,---,0.00,VWS V14.01,2013-06-09 06:01:00,
2013-06-09 02:06:00,64.4,63.2,30.04,NW,304,0.0,0.0,96,0.00,,---,0.00,VWS V14.01,2013-06-09 06:06:00,
2013-06-09 02:11:00,64.3,63.1,30.04,NW,304,0.0,0.0,96,0.00,,---,0.00,VWS V14.01,2013-06-09 06:11:00,
2013-06-09 02:16:00,64.3,63.1,30.04,NW,304,0.0,0.0,96,0.00,,---,0.00,VWS V14.01,2013-06-09 06:16:00,
2013-06-09 02:21:00,64.3,63.1,30.04,NW,304,0.0,0.0,96,0.00,,---,0.00,VWS V14.01,2013-06-09 06:21:00,
2013-06-09 02:26:00,64.3,63.1,30.04,NW,304,0.0,0.0,96,0.00,,---,0.00,VWS V14.01,2013-06-09 06:26:00,
2013-06-09 02:31:00,64.3,63.1,30.03,NW,304,0.0,0.0,96,0.00,,---,0.00,VWS V14.01,2013-06-09 06:31:00,
2013-06-09 02:36:00,64.1,62.9,30.04,NW,304,0.0,0.0,96,0.00,,---,0.00,VWS V14.01,2013-06-09 06:36:00,
2013-06-09 02:41:00,63.9,62.4,30.03,NW,304,0.0,0.0,95,0.00,,---,0.00,VWS V14.01,2013-06-09 06:41:00,
2013-06-09 02:46:00,63.6,62.2,30.03,NW,304,0.0,0.0,95,0.00,,---,0.00,VWS V14.01,2013-06-09 06:46:00,
2013-06-09 02:51:00,63.3,61.8,30.04,NW,314,0.0,0.0,95,0.00,,---,0.00,VWS V14.01,2013-06-09 06:51:00,
2013-06-09 02:56:00,63.2,62.0,30.04,NNW,340,0.0,0.0,96,0.00,,---,0.00,VWS V14.01,2013-06-09 06:56:00,
2013-06-09 03:01:00,63.1,61.9,30.03,NNW,340,0.0,0.0,96,0.00,,---,0.00,VWS V14.01,2013-06-09 07:01:00,
2013-06-09 03:06:00,63.1,61.9,30.03,NNW,339,0.0,0.0,96,0.00,,---,0.00,VWS V14.01,2013-06-09 07:06:00,
2013-06-09 03:11:00,63.0,61.8,30.03,NNW,348,0.0,0.0,96,0.00,,---,0.00,VWS V14.01,2013-06-09 07:11:00,
2013-06-09 03:16:00,63.0,61.8,30.03,NNW,339,0.0,0.0,96,0.00,,---,0.00,VWS V14.01,2013-06-09 07:16:00,
2013-06-09 03:21:00,63.0,61.8,30.04,NNW,339,0.0,0.0,96,0.00,,---,0.00,VWS V14.01,2013-06-09 07:21:00,
2013-06-09 03:26:00,63.0,61.8,30.03,NNW,339,0.0,0.0,96,0.00,,---,0.00,VWS V14.01,2013-06-09 07:26:00,
2013-06-09 03:30:00,62.9,61.8,30.04,NNW,339,0.0,0.0,96,0.00,,---,0.00,VWS V14.01,2013-06-09 07:30:00,
2013-06-09 03:35:00,63.0,61.8,30.04,NNW,339,0.0,0.0,96,0.00,,---,0.00,VWS V14.01,2013-06-09 07:35:00,
2013-06-09 03:40:00,63.0,61.8,30.04,NNW,338,0.0,0.0,96,0.00,,---,0.00,VWS V14.01,2013-06-09 07:40:00,
2013-06-09 03:46:00,63.0,61.8,30.04,NNW,338,0.0,0.0,96,0.00,,---,0.00,VWS V14.01,2013-06-09 07:46:00,
2013-06-09 03:50:00,62.9,61.8,30.04,NNW,338,0.0,0.0,96,0.00,,---,0.00,VWS V14.01,2013-06-09 07:50:00,
2013-06-09 03:55:00,63.0,61.8,30.04,NNW,338,0.0,0.0,96,0.00,,---,0.00,VWS V14.01,2013-06-09 07:55:00,
2013-06-09 04:00:00,63.1,62.2,30.04,NNW,338,0.0,0.0,97,0.00,,---,0.00,VWS V14.01,2013-06-09 08:00:00,
2013-06-09 04:05:00,63.0,61.8,30.04,NNW,338,0.0,0.0,96,0.00,,---,0.00,VWS V14.01,2013-06-09 08:05:00,
2013-06-09 04:10:00,63.0,61.8,30.04,NNW,338,0.0,0.0,96,0.00,,---,0.00,VWS V14.01,2013-06-09 08:10:00,
2013-06-09 04:15:00,62.8,61.7,30.04,NW,321,0.0,0.0,96,0.00,,---,0.00,VWS V14.01,2013-06-09 08:15:00,
2013-06-09 04:20:00,62.9,61.8,30.04,NW,319,0.0,0.0,96,0.00,,---,0.00,VWS V14.01,2013-06-09 08:20:00,
2013-06-09 04:25:00,62.9,61.8,30.04,NW,315,0.0,0.0,96,0.00,,---,0.00,VWS V14.01,2013-06-09 08:25:00,
2013-06-09 04:30:00,62.9,61.8,30.04,North,355,0.0,0.0,96,0.00,,---,0.00,VWS V14.01,2013-06-09 08:30:00,
2013-06-09 04:35:00,62.9,61.8,30.04,NW,325,0.0,0.0,96,0.00,,---,0.00,VWS V14.01,2013-06-09 08:35:00,
2013-06-09 04:40:00,63.0,62.1,30.04,NW,315,0.0,0.0,97,0.00,,---,0.00,VWS V14.01,2013-06-09 08:40:00,
2013-06-09 04:45:00,63.1,62.2,30.04,WNW,297,0.0,0.0,97,0.00,,---,0.00,VWS V14.01,2013-06-09 08:45:00,
2013-06-09 04:50:00,63.2,62.3,30.04,NW,305,0.0,0.0,97,0.00,,---,0.00,VWS V14.01,2013-06-09 08:50:00,
2013-06-09 04:55:00,63.3,62.4,30.04,NW,306,0.0,0.0,97,0.00,,---,0.00,VWS V14.01,2013-06-09 08:55:00,
2013-06-09 05:00:00,63.5,62.6,30.05,NW,306,0.0,0.0,97,0.00,,---,0.00,VWS V14.01,2013-06-09 09:00:00,
2013-06-09 05:05:00,63.7,62.8,30.05,NW,306,0.0,0.0,97,0.00,,---,0.00,VWS V14.01,2013-06-09 09:05:00,
2013-06-09 05:10:00,63.8,62.9,30.05,NW,306,0.0,0.0,97,0.00,,---,0.00,VWS V14.01,2013-06-09 09:10:00,
2013-06-09 05:15:00,63.8,62.9,30.05,NW,306,0.0,0.0,97,0.00,,---,0.00,VWS V14.01,2013-06-09 09:15:00,
2013-06-09 05:20:00,63.8,62.9,30.05,NW,306,0.0,0.0,97,0.00,,---,0.00,VWS V14.01,2013-06-09 09:20:00,
2013-06-09 05:25:00,63.8,62.9,30.06,NW,306,0.0,0.0,97,0.00,,---,0.00,VWS V14.01,2013-06-09 09:25:00,
2013-06-09 05:30:00,63.8,62.9,30.06,NW,306,0.0,0.0,97,0.00,,---,0.00,VWS V14.01,2013-06-09 09:30:00,
2013-06-09 05:35:00,63.7,62.8,30.06,NW,306,0.0,0.0,97,0.00,,---,0.00,VWS V14.01,2013-06-09 09:35:00,
2013-06-09 05:40:00,63.8,62.9,30.06,NW,306,0.0,0.0,97,0.00,,---,0.00,VWS V14.01,2013-06-09 09:40:00,
2013-06-09 05:45:00,63.8,62.9,30.06,NW,306,0.0,0.0,97,0.00,,---,0.00,VWS V14.01,2013-06-09 09:45:00,
2013-06-09 05:50:00,63.8,62.9,30.06,NW,306,0.0,0.0,97,0.00,,---,0.00,VWS V14.01,2013-06-09 09:50:00,
2013-06-09 05:55:00,63.8,62.9,30.06,NW,306,0.0,0.0,97,0.00,,---,0.00,VWS V14.01,2013-06-09 09:55:00,
2013-06-09 06:00:00,63.7,62.5,30.06,NW,306,0.0,0.0,96,0.00,,---,0.00,VWS V14.01,2013-06-09 10:00:00,
2013-06-09 06:05:00,63.6,62.4,30.06,NW,306,0.0,0.0,96,0.00,,---,0.00,VWS V14.01,2013-06-09 10:05:00,
2013-06-09 06:10:00,63.7,62.5,30.06,NW,306,0.0,0.0,96,0.00,,---,0.00,VWS V14.01,2013-06-09 10:10:00,
2013-06-09 06:15:00,63.6,62.4,30.06,NW,306,0.0,0.0,96,0.00,,---,0.00,VWS V14.01,2013-06-09 10:15:00,
2013-06-09 06:20:00,63.5,62.3,30.06,NW,306,0.0,0.0,96,0.00,,---,0.00,VWS V14.01,2013-06-09 10:20:00,
2013-06-09 06:25:00,63.5,62.3,30.07,NW,306,0.0,0.0,96,0.00,,---,0.00,VWS V14.01,2013-06-09 10:25:00,
2013-06-09 06:30:00,63.6,62.4,30.07,NW,306,0.0,0.0,96,0.00,,---,0.00,VWS V14.01,2013-06-09 10:30:00,
2013-06-09 06:35:00,63.6,62.7,30.07,NW,306,0.0,0.0,97,0.00,,---,0.00,VWS V14.01,2013-06-09 10:35:00,
2013-06-09 06:40:00,63.6,62.7,30.07,NW,306,0.0,0.0,97,0.00,,---,0.00,VWS V14.01,2013-06-09 10:40:00,
2013-06-09 06:45:00,63.5,62.3,30.07,NW,306,0.0,0.0,96,0.00,,---,0.00,VWS V14.01,2013-06-09 10:45:00,
2013-06-09 06:50:00,63.5,62.3,30.07,NW,306,0.0,0.0,96,0.00,,---,0.00,VWS V14.01,2013-06-09 10:50:00,
2013-06-09 06:55:00,63.5,62.3,30.07,NW,306,0.0,0.0,96,0.00,,---,0.00,VWS V14.01,2013-06-09 10:55:00,
2013-06-09 07:00:00,63.4,62.2,30.07,NW,306,0.0,0.0,96,0.00,,---,0.00,VWS V14.01,2013-06-09 11:00:00,
2013-06-09 07:05:00,63.4,62.2,30.07,NW,306,0.0,0.0,96,0.00,,---,0.00,VWS V14.01,2013-06-09 11:05:00,
2013-06-09 07:10:00,63.5,62.6,30.07,SSE,160,0.0,0.0,97,0.00,,---,0.00,VWS V14.01,2013-06-09 11:10:00,
2013-06-09 07:15:00,63.7,62.8,30.07,SSE,160,0.0,0.0,97,0.00,,---,0.00,VWS V14.01,2013-06-09 11:15:00,
2013-06-09 07:20:00,63.9,63.0,30.07,SSE,160,0.0,0.0,97,0.00,,---,0.00,VWS V14.01,2013-06-09 11:20:00,
2013-06-09 07:25:00,64.2,63.3,30.07,SSE,160,0.0,0.0,97,0.00,,---,0.00,VWS V14.01,2013-06-09 11:25:00,
2013-06-09 07:30:00,64.4,63.5,30.08,SSE,160,0.0,0.0,97,0.00,,---,0.00,VWS V14.01,2013-06-09 11:30:00,
2013-06-09 07:35:00,64.7,63.8,30.08,SSE,160,0.0,0.0,97,0.00,,---,0.00,VWS V14.01,2013-06-09 11:35:00,
2013-06-09 07:40:00,65.0,64.1,30.08,SSE,160,0.0,0.0,97,0.00,,---,0.00,VWS V14.01,2013-06-09 11:40:00,
2013-06-09 07:45:00,65.4,64.8,30.08,SSE,162,0.0,0.0,98,0.00,,---,0.00,VWS V14.01,2013-06-09 11:45:00,
2013-06-09 07:50:00,65.6,64.7,30.08,SSE,162,0.0,0.0,97,0.00,,---,0.00,VWS V14.01,2013-06-09 11:50:00,
2013-06-09 07:55:00,65.9,65.3,30.09,SSE,163,0.0,0.0,98,0.00,,---,0.00,VWS V14.01,2013-06-09 11:55:00,
2013-06-09 08:00:00,66.2,65.3,30.09,SSE,163,0.0,0.0,97,0.00,,---,0.00,VWS V14.01,2013-06-09 12:00:00,
2013-06-09 08:05:00,66.7,65.8,30.09,NNW,332,0.0,0.0,97,0.00,,---,0.00,VWS V14.01,2013-06-09 12:05:00,
2013-06-09 08:10:00,67.1,66.2,30.09,NNW,331,0.0,0.0,97,0.00,,---,0.00,VWS V14.01,2013-06-09 12:10:00,
2013-06-09 08:15:00,67.5,66.6,30.09,NNW,331,0.0,0.0,97,0.00,,---,0.00,VWS V14.01,2013-06-09 12:15:00,
2013-06-09 08:20:00,67.8,66.6,30.09,NNW,331,0.0,0.0,96,0.00,,---,0.00,VWS V14.01,2013-06-09 12:20:00,
2013-06-09 08:25:00,68.2,66.7,30.09,NE,45,0.0,0.0,95,0.00,,---,0.00,VWS V14.01,2013-06-09 12:25:00,
2013-06-09 08:30:00,68.7,67.2,30.09,NE,45,0.0,0.0,95,0.00,,---,0.00,VWS V14.01,2013-06-09 12:30:00,
2013-06-09 08:35:00,69.3,67.5,30.09,NE,45,0.0,0.0,94,0.00,,---,0.00,VWS V14.01,2013-06-09 12:35:00,
2013-06-09 08:40:00,69.8,67.7,30.09,NE,55,0.0,0.0,93,0.00,,---,0.00,VWS V14.01,2013-06-09 12:40:00,
2013-06-09 08:45:00,70.4,68.0,30.10,NE,55,0.0,0.0,92,0.00,,---,0.00,VWS V14.01,2013-06-09 12:45:00,
2013-06-09 08:50:00,70.9,67.8,30.10,SW,234,0.0,0.0,90,0.00,,---,0.00,VWS V14.01,2013-06-09 12:50:00,
2013-06-09 08:55:00,71.6,68.2,30.10,SW,229,0.0,0.0,89,0.00,,---,0.00,VWS V14.01,2013-06-09 12:55:00,
2013-06-09 09:00:00,72.1,68.3,30.10,SW,229,0.0,0.0,88,0.00,,---,0.00,VWS V14.01,2013-06-09 13:00:00,
2013-06-09 09:05:00,72.6,68.8,30.10,SW,228,0.0,0.0,88,0.00,,---,0.00,VWS V14.01,2013-06-09 13:05:00,
2013-06-09 09:10:00,73.0,68.9,30.10,SE,144,0.0,0.0,87,0.00,,---,0.00,VWS V14.01,2013-06-09 13:10:00,
2013-06-09 09:15:00,73.4,69.3,30.10,ESE,111,0.0,0.0,87,0.00,,---,0.00,VWS V14.01,2013-06-09 13:15:00,
2013-06-09 09:20:00,73.7,69.6,30.10,ESE,111,0.0,0.0,87,0.00,,---,0.00,VWS V14.01,2013-06-09 13:20:00,
2013-06-09 09:25:00,73.9,69.1,30.10,ESE,103,0.0,0.0,85,0.00,,---,0.00,VWS V14.01,2013-06-09 13:25:00,
2013-06-09 09:34:00,74.3,69.5,30.10,ENE,66,0.0,0.0,85,0.00,,---,0.00,VWS V14.01,2013-06-09 13:34:00,
2013-06-09 09:39:00,74.4,69.6,30.10,East,80,0.0,0.0,85,0.00,,---,0.00,VWS V14.01,2013-06-09 13:39:00,
2013-06-09 09:44:00,74.5,69.3,30.09,SE,130,0.0,0.0,84,0.00,,---,0.00,VWS V14.01,2013-06-09 13:44:00,
2013-06-09 09:49:00,74.4,68.9,30.09,South,169,0.0,0.0,83,0.00,,---,0.00,VWS V14.01,2013-06-09 13:49:00,
2013-06-09 09:54:00,74.4,69.9,30.09,South,178,0.0,0.0,86,0.00,,---,0.00,VWS V14.01,2013-06-09 13:54:00,
2013-06-09 09:59:00,74.6,69.4,30.09,East,98,0.0,0.0,84,0.00,,---,0.00,VWS V14.01,2013-06-09 13:59:00,
2013-06-09 10:04:00,75.1,70.3,30.09,East,101,0.0,0.0,85,0.00,,---,0.00,VWS V14.01,2013-06-09 14:04:00,
2013-06-09 10:09:00,75.4,70.2,30.09,ENE,64,0.0,0.0,84,0.00,,---,0.00,VWS V14.01,2013-06-09 14:09:00,
2013-06-09 10:14:00,75.5,70.0,30.09,East,97,0.0,0.0,83,0.00,,---,0.00,VWS V14.01,2013-06-09 14:14:00,
2013-06-09 10:19:00,75.7,70.5,30.08,SE,133,0.0,0.0,84,0.00,,---,0.00,VWS V14.01,2013-06-09 14:19:00,
2013-06-09 10:24:00,76.0,71.2,30.08,ENE,75,0.0,0.0,85,0.00,,---,0.00,VWS V14.01,2013-06-09 14:24:00,
2013-06-09 10:29:00,76.0,70.1,30.08,East,101,0.0,0.0,82,0.00,,---,0.00,VWS V14.01,2013-06-09 14:29:00,
2013-06-09 10:34:00,76.2,71.0,30.08,SSE,155,0.0,0.0,84,0.00,,---,0.00,VWS V14.01,2013-06-09 14:34:00,
2013-06-09 10:39:00,76.4,70.5,30.08,East,80,0.0,0.0,82,0.00,,---,0.00,VWS V14.01,2013-06-09 14:39:00,
2013-06-09 10:44:00,76.7,70.8,30.08,NE,36,0.0,0.0,82,0.00,,---,0.00,VWS V14.01,2013-06-09 14:44:00,
2013-06-09 10:49:00,77.0,71.4,30.08,ESE,114,0.0,0.0,83,0.00,,---,0.00,VWS V14.01,2013-06-09 14:49:00,
2013-06-09 10:54:00,77.4,71.1,30.08,SSW,192,0.0,0.0,81,0.00,,---,0.00,VWS V14.01,2013-06-09 14:54:00,
2013-06-09 10:59:00,77.7,71.4,30.08,East,84,0.0,0.0,81,0.00,,---,0.00,VWS V14.01,2013-06-09 14:59:00,
2013-06-09 11:04:00,77.7,70.7,30.08,East,96,0.0,0.0,79,0.00,,---,0.00,VWS V14.01,2013-06-09 15:04:00,
2013-06-09 11:09:00,77.8,71.5,30.08,East,101,0.0,0.0,81,0.00,,---,0.00,VWS V14.01,2013-06-09 15:09:00,
2013-06-09 11:14:00,77.9,71.2,30.08,South,175,0.0,0.0,80,0.00,,---,0.00,VWS V14.01,2013-06-09 15:14:00,
2013-06-09 11:19:00,77.9,70.9,30.08,SSW,194,0.0,0.0,79,0.00,,---,0.00,VWS V14.01,2013-06-09 15:19:00,
2013-06-09 11:24:00,78.1,71.8,30.08,SSW,192,0.0,0.0,81,0.00,,---,0.00,VWS V14.01,2013-06-09 15:24:00,
2013-06-09 11:29:00,78.5,72.2,30.08,SE,136,0.0,0.0,81,0.00,,---,0.00,VWS V14.01,2013-06-09 15:29:00,
2013-06-09 11:34:00,78.8,71.4,30.08,SSE,167,0.0,0.0,78,0.00,,---,0.00,VWS V14.01,2013-06-09 15:34:00,
2013-06-09 11:39:00,79.2,72.5,30.08,ESE,103,0.0,0.0,80,0.00,,---,0.00,VWS V14.01,2013-06-09 15:39:00,
2013-06-09 11:44:00,79.6,72.5,30.08,SE,136,0.0,0.0,79,0.00,,---,0.00,VWS V14.01,2013-06-09 15:44:00,
2013-06-09 11:48:00,80.0,72.2,30.07,East,88,0.0,0.0,77,0.00,,---,0.00,VWS V14.01,2013-06-09 15:48:00,
2013-06-09 11:53:00,80.0,71.4,30.07,East,101,0.0,0.0,75,0.00,,---,0.00,VWS V14.01,2013-06-09 15:53:00,
2013-06-09 11:58:00,80.0,71.0,30.07,East,98,0.0,0.0,74,0.00,,---,0.00,VWS V14.01,2013-06-09 15:58:00,
2013-06-09 12:03:00,80.2,71.9,30.07,East,92,0.0,0.0,76,0.00,,---,0.00,VWS V14.01,2013-06-09 16:03:00,
2013-06-09 12:08:00,80.2,71.9,30.07,East,96,0.0,0.0,76,0.00,,---,0.00,VWS V14.01,2013-06-09 16:08:00,
2013-06-09 12:13:00,80.4,72.5,30.07,East,94,0.0,0.0,77,0.00,,---,0.00,VWS V14.01,2013-06-09 16:13:00,
2013-06-09 12:18:00,80.6,71.9,30.07,ESE,114,0.0,0.0,75,0.00,,---,0.00,VWS V14.01,2013-06-09 16:18:00,
2013-06-09 12:23:00,80.5,71.1,30.07,South,176,0.0,0.0,73,0.00,,---,0.00,VWS V14.01,2013-06-09 16:23:00,
2013-06-09 12:28:00,80.4,72.5,30.07,ESE,117,0.0,0.0,77,0.00,,---,0.00,VWS V14.01,2013-06-09 16:28:00,
2013-06-09 12:33:00,80.5,71.1,30.06,SE,134,0.0,0.0,73,0.00,,---,0.00,VWS V14.01,2013-06-09 16:33:00,
2013-06-09 12:38:00,80.4,71.0,30.07,SSE,155,0.0,0.0,73,0.00,,---,0.00,VWS V14.01,2013-06-09 16:38:00,
2013-06-09 12:43:00,80.2,69.9,30.06,SE,137,0.0,0.0,71,0.00,,---,0.00,VWS V14.01,2013-06-09 16:43:00,
2013-06-09 12:48:00,80.2,70.4,30.06,SE,146,0.0,0.0,72,0.00,,---,0.00,VWS V14.01,2013-06-09 16:48:00,
2013-06-09 12:53:00,80.2,70.8,30.06,SSE,150,0.0,0.0,73,0.00,,---,0.00,VWS V14.01,2013-06-09 16:53:00,
2013-06-09 12:58:00,80.2,69.5,30.06,SSE,150,0.0,0.0,70,0.00,,---,0.00,VWS V14.01,2013-06-09 16:58:00,
2013-06-09 13:03:00,80.3,70.9,30.06,SSE,150,0.0,0.0,73,0.00,,---,0.00,VWS V14.01,2013-06-09 17:03:00,
2013-06-09 13:08:00,80.8,70.5,30.06,SSE,152,0.0,0.0,71,0.00,,---,0.00,VWS V14.01,2013-06-09 17:08:00,
2013-06-09 13:13:00,81.2,70.5,30.06,SE,126,0.0,0.0,70,0.00,,---,0.00,VWS V14.01,2013-06-09 17:13:00,
2013-06-09 13:18:00,81.0,69.9,30.05,South,173,0.0,0.0,69,0.00,,---,0.00,VWS V14.01,2013-06-09 17:18:00,
2013-06-09 13:23:00,80.9,69.8,30.05,SSE,151,0.0,0.0,69,0.00,,---,0.00,VWS V14.01,2013-06-09 17:23:00,
2013-06-09 13:28:00,80.9,71.0,30.05,SSE,154,0.0,0.0,72,0.00,,---,0.00,VWS V14.01,2013-06-09 17:28:00,
2013-06-09 13:33:00,81.1,73.2,30.05,ESE,102,0.0,0.0,77,0.00,,---,0.00,VWS V14.01,2013-06-09 17:33:00,
2013-06-09 13:38:00,81.7,71.8,30.04,East,92,0.0,0.0,72,0.00,,---,0.00,VWS V14.01,2013-06-09 17:38:00,
2013-06-09 13:43:00,82.1,70.1,30.04,SE,146,0.0,0.0,67,0.00,,---,0.00,VWS V14.01,2013-06-09 17:43:00,
2013-06-09 13:48:00,82.2,70.6,30.04,SE,134,0.0,0.0,68,0.00,,---,0.00,VWS V14.01,2013-06-09 17:48:00,
2013-06-09 13:53:00,82.3,69.8,30.04,SSW,194,0.0,0.0,66,0.00,,---,0.00,VWS V14.01,2013-06-09 17:53:00,
2013-06-09 13:58:00,82.8,72.0,30.04,South,184,0.0,0.0,70,0.00,,---,0.00,VWS V14.01,2013-06-09 17:58:00,
2013-06-09 14:03:00,82.8,70.3,30.04,SSE,153,0.0,0.0,66,0.00,,---,0.00,VWS V14.01,2013-06-09 18:03:00,
2013-06-09 15:15:00,82.6,69.2,30.04,SSE,153,0.0,0.0,64,0.00,,---,0.00,VWS V14.01,2013-06-09 19:15:00,
2013-06-09 15:20:00,83.1,68.7,30.01,South,173,3.0,5.0,62,0.00,,---,0.00,VWS V14.01,2013-06-09 19:20:00,
2013-06-09 15:25:00,83.0,69.1,30.02,ESE,112,0.0,5.0,63,0.00,,---,0.00,VWS V14.01,2013-06-09 19:25:00,
2013-06-09 15:30:00,83.0,70.0,30.02,ENE,78,5.0,6.0,65,0.00,,---,0.00,VWS V14.01,2013-06-09 19:30:00,
2013-06-09 15:35:00,83.0,69.6,30.01,ESE,104,4.0,7.0,64,0.00,,---,0.00,VWS V14.01,2013-06-09 19:35:00,
2013-06-09 15:40:00,83.0,70.0,30.01,SSE,167,1.0,8.0,65,0.00,,---,0.00,VWS V14.01,2013-06-09 19:40:00,
2013-06-09 15:45:00,83.3,69.9,30.01,SE,137,1.0,8.0,64,0.00,,---,0.00,VWS V14.01,2013-06-09 19:45:00,
2013-06-09 15:50:00,83.3,70.8,30.00,East,88,0.0,8.0,66,0.00,,---,0.00,VWS V14.01,2013-06-09 19:50:00,
2013-06-09 15:55:00,83.3,70.8,30.00,ESE,111,0.0,8.0,66,0.00,,---,0.00,VWS V14.01,2013-06-09 19:55:00,
2013-06-09 16:00:00,83.4,71.3,30.00,South,182,0.0,8.0,67,0.00,,---,0.00,VWS V14.01,2013-06-09 20:00:00,
2013-06-09 16:05:00,83.9,70.4,30.00,South,173,1.0,2.0,64,0.00,,---,0.00,VWS V14.01,2013-06-09 20:05:00,
2013-06-09 16:10:00,84.2,70.2,29.99,South,177,2.0,5.0,63,0.00,,---,0.00,VWS V14.01,2013-06-09 20:10:00,
2013-06-09 16:15:00,84.4,70.9,29.99,ESE,109,0.0,5.0,64,0.00,,---,0.00,VWS V14.01,2013-06-09 20:15:00,
2013-06-09 16:20:00,84.7,71.2,29.99,WNW,286,0.0,5.0,64,0.00,,---,0.00,VWS V14.01,2013-06-09 20:20:00,
2013-06-09 16:25:00,84.6,69.2,29.99,SSW,205,4.0,6.0,60,0.00,,---,0.00,VWS V14.01,2013-06-09 20:25:00,
2013-06-09 16:30:00,84.0,70.1,29.99,South,177,3.0,7.0,63,0.00,,---,0.00,VWS V14.01,2013-06-09 20:30:00,
2013-06-09 16:35:00,83.5,69.1,29.99,SE,144,0.0,4.0,62,0.00,,---,0.00,VWS V14.01,2013-06-09 20:35:00,
2013-06-09 16:40:00,83.2,70.2,29.99,South,169,1.0,4.0,65,0.00,,---,0.00,VWS V14.01,2013-06-09 20:40:00,
2013-06-09 16:45:00,83.0,70.5,29.99,SSE,153,0.0,4.0,66,0.00,,---,0.00,VWS V14.01,2013-06-09 20:45:00,
2013-06-09 16:50:00,83.0,70.5,29.99,ESE,119,0.0,4.0,66,0.00,,---,0.00,VWS V14.01,2013-06-09 20:50:00,
2013-06-09 16:55:00,83.2,71.6,29.99,South,173,0.0,4.0,68,0.00,,---,0.00,VWS V14.01,2013-06-09 20:55:00,
2013-06-09 17:00:00,83.5,70.5,29.99,SE,138,0.0,4.0,65,0.00,,---,0.00,VWS V14.01,2013-06-09 21:00:00,
2013-06-09 17:05:00,83.7,71.6,29.99,ESE,117,0.0,1.0,67,0.00,,---,0.00,VWS V14.01,2013-06-09 21:05:00,
2013-06-09 17:10:00,83.6,70.1,29.99,ESE,118,1.0,4.0,64,0.00,,---,0.00,VWS V14.01,2013-06-09 21:10:00,
2013-06-09 17:15:00,83.4,70.4,29.99,SSE,167,0.0,4.0,65,0.00,,---,0.00,VWS V14.01,2013-06-09 21:15:00,
2013-06-09 17:20:00,83.3,69.9,29.99,SSE,167,0.0,4.0,64,0.00,,---,0.00,VWS V14.01,2013-06-09 21:20:00,
2013-06-09 17:25:00,83.4,69.9,29.99,South,187,2.0,4.0,64,0.00,,---,0.00,VWS V14.01,2013-06-09 21:25:00,
2013-06-09 17:30:00,83.5,70.5,29.99,SW,219,4.0,4.0,65,0.00,,---,0.00,VWS V14.01,2013-06-09 21:30:00,
2013-06-09 17:35:00,83.4,69.5,29.99,SSE,150,0.0,4.0,63,0.00,,---,0.00,VWS V14.01,2013-06-09 21:35:00,
2013-06-09 17:40:00,83.4,69.5,29.99,South,186,0.0,10.0,63,0.00,,---,0.00,VWS V14.01,2013-06-09 21:40:00,
2013-06-09 17:45:00,83.2,69.8,29.99,SSE,153,0.0,10.0,64,0.00,,---,0.00,VWS V14.01,2013-06-09 21:45:00,
2013-06-09 17:50:00,82.8,68.9,29.99,South,187,0.0,10.0,63,0.00,,---,0.00,VWS V14.01,2013-06-09 21:50:00,
2013-06-09 17:55:00,82.4,69.0,29.99,SSW,205,2.0,10.0,64,0.00,,---,0.00,VWS V14.01,2013-06-09 21:55:00,
2013-06-09 18:00:00,82.1,69.6,29.99,South,172,0.0,10.0,66,0.00,,---,0.00,VWS V14.01,2013-06-09 22:00:00,
2013-06-09 18:05:00,81.8,69.8,29.99,South,173,0.0,4.0,67,0.00,,---,0.00,VWS V14.01,2013-06-09 22:05:00,
2013-06-09 18:10:00,81.8,70.6,29.99,SSE,163,0.0,4.0,69,0.00,,---,0.00,VWS V14.01,2013-06-09 22:10:00,
2013-06-09 18:15:00,81.7,70.1,29.99,SSE,160,6.0,6.0,68,0.00,,---,0.00,VWS V14.01,2013-06-09 22:15:00,
2013-06-09 18:20:00,81.6,70.0,29.99,SW,223,0.0,6.0,68,0.00,,---,0.00,VWS V14.01,2013-06-09 22:20:00,
2013-06-09 18:25:00,81.4,70.3,29.99,East,88,0.0,6.0,69,0.00,,---,0.00,VWS V14.01,2013-06-09 22:25:00,
2013-06-09 18:30:00,81.3,70.2,29.99,South,171,0.0,6.0,69,0.00,,---,0.00,VWS V14.01,2013-06-09 22:30:00,
2013-06-09 18:35:00,81.2,70.1,29.99,ESE,116,0.0,5.0,69,0.00,,---,0.00,VWS V14.01,2013-06-09 22:35:00,
2013-06-09 18:40:00,81.1,70.4,29.99,SE,142,0.0,6.0,70,0.00,,---,0.00,VWS V14.01,2013-06-09 22:40:00,
2013-06-09 18:45:00,81.0,70.3,29.99,SSW,192,0.0,6.0,70,0.00,,---,0.00,VWS V14.01,2013-06-09 22:45:00,
2013-06-09 18:50:00,80.9,70.6,29.99,SSW,196,0.0,6.0,71,0.00,,---,0.00,VWS V14.01,2013-06-09 22:50:00,
2013-06-09 18:55:00,80.7,70.8,29.99,South,191,0.0,6.0,72,0.00,,---,0.00,VWS V14.01,2013-06-09 22:55:00,
2013-06-09 19:00:00,80.6,70.8,29.99,South,189,0.0,6.0,72,0.00,,---,0.00,VWS V14.01,2013-06-09 23:00:00,
2013-06-09 19:05:00,80.5,71.5,29.99,SSE,163,0.0,4.0,74,0.00,,---,0.00,VWS V14.01,2013-06-09 23:05:00,
2013-06-09 19:10:00,80.5,71.5,29.99,SSE,163,0.0,4.0,74,0.00,,---,0.00,VWS V14.01,2013-06-09 23:10:00,
2013-06-09 19:15:00,80.3,70.9,29.99,ESE,122,6.0,6.0,73,0.00,,---,0.00,VWS V14.01,2013-06-09 23:15:00,
2013-06-09 19:20:00,80.1,71.1,29.99,South,179,1.0,6.0,74,0.00,,---,0.00,VWS V14.01,2013-06-09 23:20:00,
2013-06-09 19:25:00,79.9,70.5,29.99,SSE,151,0.0,6.0,73,0.00,,---,0.00,VWS V14.01,2013-06-09 23:25:00,
2013-06-09 19:30:00,79.7,70.3,29.99,SSE,151,1.0,6.0,73,0.00,,---,0.00,VWS V14.01,2013-06-09 23:30:00,
2013-06-09 19:35:00,79.5,70.5,29.99,SE,141,0.0,1.0,74,0.00,,---,0.00,VWS V14.01,2013-06-09 23:35:00,
2013-06-09 19:40:00,79.4,70.8,29.99,SE,135,2.0,3.0,75,0.00,,---,0.00,VWS V14.01,2013-06-09 23:40:00,
2013-06-09 19:45:00,79.2,70.6,29.99,SSW,210,0.0,5.0,75,0.00,,---,0.00,VWS V14.01,2013-06-09 23:45:00,
2013-06-09 19:50:00,79.0,70.8,30.00,South,178,3.0,5.0,76,0.00,,---,0.00,VWS V14.01,2013-06-09 23:50:00,
2013-06-09 19:55:00,78.8,70.6,29.99,SSW,196,0.0,5.0,76,0.00,,---,0.00,VWS V14.01,2013-06-09 23:55:00,
2013-06-09 20:00:00,78.6,70.8,29.99,South,179,0.0,5.0,77,0.00,,---,0.00,VWS V14.01,2013-06-10 00:00:00,
2013-06-09 20:05:00,78.4,70.6,29.99,South,178,0.0,0.0,77,0.00,,---,0.00,VWS V14.01,2013-06-10 00:05:00,
2013-06-09 20:10:00,78.2,70.4,29.99,SE,135,0.0,1.0,77,0.00,,---,0.00,VWS V14.01,2013-06-10 00:10:00,
2013-06-09 20:15:00,78.1,70.7,30.00,SSE,147,0.0,1.0,78,0.00,,---,0.00,VWS V14.01,2013-06-10 00:15:00,
2013-06-09 20:20:00,77.9,70.5,29.99,South,171,0.0,4.0,78,0.00,,---,0.00,VWS V14.01,2013-06-10 00:20:00,
2013-06-09 20:25:00,77.7,70.7,30.00,SE,125,0.0,4.0,79,0.00,,---,0.00,VWS V14.01,2013-06-10 00:25:00,
2013-06-09 20:30:00,77.4,69.2,30.00,South,187,7.0,15.0,76,0.00,,---,0.00,VWS V14.01,2013-06-10 00:30:00,
2013-06-09 20:35:00,76.8,68.7,30.01,WSW,255,1.0,9.0,76,0.00,,---,0.00,VWS V14.01,2013-06-10 00:35:00,
2013-06-09 20:40:00,75.6,69.4,30.01,West,273,1.0,9.0,81,0.00,,---,0.00,VWS V14.01,2013-06-10 00:40:00,
2013-06-09 20:45:00,74.3,69.5,30.01,WSW,241,1.0,9.0,85,0.01,,---,0.01,VWS V14.01,2013-06-10 00:45:00,
2013-06-09 20:50:00,73.3,69.5,30.02,WSW,252,7.0,10.0,88,0.02,,---,0.02,VWS V14.01,2013-06-10 00:50:00,
2013-06-09 20:55:00,72.4,69.3,30.05,SSE,152,5.0,24.0,90,0.18,,---,0.18,VWS V14.01,2013-06-10 00:55:00,
2013-06-09 21:00:00,71.1,68.0,30.04,SW,217,3.0,24.0,90,0.36,,---,0.36,VWS V14.01,2013-06-10 01:00:00,
2013-06-09 21:05:00,70.5,68.1,30.04,SW,221,0.0,2.0,92,0.39,,---,0.39,VWS V14.01,2013-06-10 01:05:00,
2013-06-09 21:10:00,69.9,67.2,30.04,SW,218,1.0,3.0,91,0.41,,---,0.41,VWS V14.01,2013-06-10 01:10:00,
2013-06-09 21:15:00,69.4,67.0,30.03,West,277,1.0,3.0,92,0.41,,---,0.41,VWS V14.01,2013-06-10 01:15:00,
2013-06-09 21:20:00,69.1,67.0,30.03,WNW,289,1.0,3.0,93,0.42,,---,0.42,VWS V14.01,2013-06-10 01:20:00,
2013-06-09 21:25:00,68.9,67.1,30.03,SW,229,0.0,3.0,94,0.42,,---,0.42,VWS V14.01,2013-06-10 01:25:00,
2013-06-09 21:30:00,68.8,67.0,30.03,WNW,283,3.0,3.0,94,0.43,,---,0.43,VWS V14.01,2013-06-10 01:30:00,
2013-06-09 21:35:00,68.8,67.0,30.02,WNW,288,0.0,2.0,94,0.44,,---,0.44,VWS V14.01,2013-06-10 01:35:00,
2013-06-09 21:40:00,68.8,67.3,30.02,West,279,0.0,2.0,95,0.44,,---,0.44,VWS V14.01,2013-06-10 01:40:00,
2013-06-09 21:45:00,68.8,67.3,30.02,West,277,0.0,2.0,95,0.44,,---,0.44,VWS V14.01,2013-06-10 01:45:00,
2013-06-09 21:50:00,68.8,67.3,30.02,West,275,0.0,2.0,95,0.44,,---,0.44,VWS V14.01,2013-06-10 01:50:00,
2013-06-09 21:55:00,68.9,67.4,30.02,South,181,0.0,2.0,95,0.44,,---,0.44,VWS V14.01,2013-06-10 01:55:00,
2013-06-09 22:00:00,69.0,67.5,30.02,SSW,206,0.0,2.0,95,0.44,,---,0.44,VWS V14.01,2013-06-10 02:00:00,
2013-06-09 22:05:00,69.0,67.5,30.02,SSW,206,0.0,0.0,95,0.06,,---,0.44,VWS V14.01,2013-06-10 02:05:00,
2013-06-09 22:10:00,69.0,67.5,30.02,SW,231,0.0,0.0,95,0.06,,---,0.44,VWS V14.01,2013-06-10 02:10:00,
2013-06-09 22:15:00,69.0,67.5,30.03,WSW,245,0.0,3.0,95,0.06,,---,0.44,VWS V14.01,2013-06-10 02:15:00,
2013-06-09 22:20:00,69.0,67.5,30.03,WSW,245,0.0,3.0,95,0.06,,---,0.44,VWS V14.01,2013-06-10 02:20:00,
2013-06-09 22:25:00,69.0,67.5,30.02,SW,229,0.0,3.0,95,0.06,,---,0.44,VWS V14.01,2013-06-10 02:25:00,
2013-06-09 22:30:00,68.9,67.4,30.02,SW,223,0.0,3.0,95,0.06,,---,0.44,VWS V14.01,2013-06-10 02:30:00,
2013-06-09 22:35:00,68.9,67.4,30.02,SW,223,0.0,0.0,95,0.00,,---,0.44,VWS V14.01,2013-06-10 02:35:00,
2013-06-09 22:40:00,68.9,67.4,30.02,SW,223,0.0,0.0,95,0.00,,---,0.44,VWS V14.01,2013-06-10 02:40:00,
2013-06-09 22:45:00,68.8,67.3,30.02,SSW,213,0.0,1.0,95,0.00,,---,0.44,VWS V14.01,2013-06-10 02:45:00,
2013-06-09 22:50:00,68.8,67.3,30.02,SSW,213,0.0,1.0,95,0.00,,---,0.44,VWS V14.01,2013-06-10 02:50:00,
2013-06-09 22:55:00,68.7,67.2,30.02,SSW,213,0.0,1.0,95,0.00,,---,0.44,VWS V14.01,2013-06-10 02:55:00,
2013-06-09 23:00:00,68.6,67.1,30.02,SSW,213,0.0,1.0,95,0.00,,---,0.44,VWS V14.01,2013-06-10 03:00:00,
2013-06-09 23:05:00,68.7,67.2,30.02,SSW,213,0.0,0.0,95,0.00,,---,0.44,VWS V14.01,2013-06-10 03:05:00,
2013-06-09 23:10:00,68.7,67.2,30.02,SSW,213,0.0,0.0,95,0.00,,---,0.44,VWS V14.01,2013-06-10 03:10:00,
2013-06-09 23:15:00,68.7,67.2,30.02,SSW,213,0.0,0.0,95,0.00,,---,0.44,VWS V14.01,2013-06-10 03:15:00,
2013-06-09 23:20:00,68.7,67.5,30.01,SSW,213,0.0,0.0,96,0.00,,---,0.44,VWS V14.01,2013-06-10 03:20:00,
2013-06-09 23:25:00,68.7,67.5,30.02,SSW,213,0.0,0.0,96,0.00,,---,0.44,VWS V14.01,2013-06-10 03:25:00,
2013-06-09 23:30:00,68.7,67.5,30.01,SSW,213,0.0,0.0,96,0.00,,---,0.44,VWS V14.01,2013-06-10 03:30:00,
2013-06-09 23:35:00,68.7,67.5,30.02,SSW,213,0.0,0.0,96,0.00,,---,0.44,VWS V14.01,2013-06-10 03:35:00,
2013-06-09 23:40:00,68.6,67.4,30.01,SSW,213,0.0,0.0,96,0.00,,---,0.44,VWS V14.01,2013-06-10 03:40:00,
2013-06-09 23:45:00,68.5,67.3,30.01,SSW,213,0.0,0.0,96,0.01,,---,0.45,VWS V14.01,2013-06-10 03:45:00,
2013-06-09 23:50:00,68.4,67.2,30.01,SSW,213,0.0,0.0,96,0.01,,---,0.45,VWS V14.01,2013-06-10 03:50:00,
2013-06-09 23:55:00,68.4,67.2,30.01,SSW,213,0.0,0.0,96,0.01,,---,0.45,VWS V14.01,2013-06-10 03:55:00,